Weather History for KPMP - July, 2014

Change the Weather History Date:

Saturday, July 5, 2014

  Actual Average Record
Temperature  
Mean Temperature 85 °F -  
Max Temperature 90 °F 91 °F 96 °F (1979)
Min Temperature 80 °F 73 °F 62 °F (1950)
Cooling Degree Days 20    
Growing Degree Days 35 (Base 50)    
Moisture  
Dew Point 75 °F    
Average Humidity 72    
Maximum Humidity 87    
Minimum Humidity 59    
Precipitation  
Precipitation 0.02 in - - ()
Sea Level Pressure  
Sea Level Pressure 30.12 in    
Wind  
Wind Speed 3 mph (ESE)    
Max Wind Speed 12 mph    
Max Gust Speed -    
Visibility 8 miles    
Events Rain , Thunderstorm    
Averages and records for this station are not official NWS values.
T = Trace of Precipitation, MM = Missing Value Source: NWS Daily Summary

Daily Weather History Graph

Daily Weather History Graph

Search for Another Location

Airport or City:

Trip Planner

Search our weather history database for the weather conditions in past years. The results will help you decide how hot, cold, wet, or windy it might be!

Date:

Astronomy

Jul. 05, 2014 Rise Set
Actual Time 6:33 AM EDT 8:16 PM EDT
Civil Twilight 6:07 AM EDT 8:42 PM EDT
Nautical Twilight 5:35 AM EDT 9:14 PM EDT
Astronomical Twilight 5:03 AM EDT 9:46 PM EDT
Moon 1:39 PM EDT (7/5) 12:51 AM EDT (7/5)
Length of Visible Light 14h 35m
Length of Day
13h 43m
First Quarter, 52% of the Moon is Illuminated
Jul 5
First Quarter
Jul 12
Full
Jul 18
Last Quarter
Jul 26
New
Aug 3
First Quarter

Hourly Weather History & Observations

Time (EDT) Temp. Heat Index Dew Point Humidity Pressure Visibility Wind Dir Wind Speed Gust Speed Precip Events Conditions
12:15 AM - - - N/A% 30.13 in 2.5 mi Calm Calm - N/A   Mist
12:39 AM - - - N/A% 30.12 in 3.0 mi Calm Calm - N/A   Mist
12:53 AM - - - N/A% 30.14 in 3.0 mi NE 3.5 mph - N/A   Mist
1:53 AM - - - N/A% 30.11 in 4.0 mi Calm Calm - N/A   Haze
2:53 AM - - - N/A% 30.09 in 4.0 mi West 3.5 mph - 0.00 in   Haze
3:53 AM - - - N/A% 30.08 in 4.0 mi Calm Calm - N/A   Haze
4:53 AM - - - N/A% 30.08 in 4.0 mi NW 3.5 mph - N/A   Haze
5:35 AM - - - N/A% 30.08 in 2.5 mi South 3.5 mph - 0.00 in Rain Light Rain
5:42 AM - - - N/A% 30.08 in 4.0 mi East 8.1 mph - 0.00 in Rain Light Rain
5:53 AM - - - N/A% 30.10 in 5.0 mi ENE 5.8 mph - 0.02 in Rain Light Rain
6:01 AM - - - N/A% 30.09 in 8.0 mi NE 4.6 mph - 0.00 in Rain , Thunderstorm Light Thunderstorms and Rain
6:20 AM - - - N/A% 30.09 in 10.0 mi Calm Calm - 0.00 in Rain Light Rain
6:53 AM - - - N/A% 30.11 in 9.0 mi Calm Calm - 0.00 in   Unknown
7:06 AM - - - N/A% 30.10 in 8.0 mi WSW 3.5 mph - N/A Thunderstorm Thunderstorm
7:53 AM - - - N/A% 30.13 in 9.0 mi ESE 10.4 mph - N/A Thunderstorm Mostly Cloudy
8:38 AM - - - N/A% 30.13 in 8.0 mi NNW 4.6 mph - N/A   Scattered Clouds
8:53 AM - - - N/A% 30.15 in 7.0 mi NNW 4.6 mph - N/A   Scattered Clouds
9:48 AM 80.6 °F 86.2 °F 75.2 °F 84% 30.15 in 8.0 mi Calm Calm - N/A Thunderstorm Thunderstorm
9:53 AM 80.1 °F 85.4 °F 75.9 °F 87% 30.15 in 7.0 mi Calm Calm - N/A Thunderstorm Thunderstorm
10:03 AM 80.1 °F 85.1 °F 75.0 °F 85% 30.15 in 7.0 mi West 3.5 mph - N/A   Mostly Cloudy
10:53 AM 84.0 °F 92.6 °F 75.9 °F 76% 30.15 in 9.0 mi Calm Calm - N/A   Scattered Clouds
11:37 AM 86.0 °F 96.0 °F 75.9 °F 72% 30.14 in 9.0 mi Variable 3.5 mph - N/A Thunderstorm Mostly Cloudy
11:53 AM 88.0 °F 98.5 °F 75.9 °F 67% 30.14 in 10.0 mi SE 8.1 mph - N/A   Mostly Cloudy
12:53 PM 89.1 °F 101.4 °F 77.0 °F 67% 30.14 in 10.0 mi SE 8.1 mph - N/A   Mostly Cloudy
1:18 PM 90.0 °F 102.5 °F 77.0 °F 65% 30.13 in 10.0 mi ESE 10.4 mph - N/A Thunderstorm Unknown
1:53 PM 87.1 °F 97.3 °F 75.9 °F 69% 30.13 in 10.0 mi SE 11.5 mph - N/A Thunderstorm Mostly Cloudy
2:04 PM 86.0 °F 96.0 °F 75.9 °F 72% 30.12 in 10.0 mi ESE 9.2 mph - N/A   Mostly Cloudy
2:19 PM 86.0 °F 90.7 °F 70.0 °F 59% 30.13 in 10.0 mi South 8.1 mph - N/A Thunderstorm Mostly Cloudy
2:34 PM 86.0 °F 93.0 °F 73.0 °F 65% 30.13 in 10.0 mi South 6.9 mph - N/A Thunderstorm Thunderstorm
2:53 PM 86.0 °F 95.1 °F 75.0 °F 70% 30.13 in 10.0 mi South 4.6 mph - N/A Thunderstorm Thunderstorm
3:07 PM 86.0 °F 95.1 °F 75.0 °F 70% 30.12 in 10.0 mi East 8.1 mph - N/A Thunderstorm Mostly Cloudy
3:53 PM 84.9 °F 91.4 °F 73.0 °F 67% 30.11 in 10.0 mi ENE 3.5 mph - N/A Thunderstorm Mostly Cloudy
4:15 PM 86.0 °F 95.1 °F 75.0 °F 70% 30.09 in 10.0 mi Variable 4.6 mph - N/A   Mostly Cloudy
4:53 PM 86.0 °F 96.0 °F 75.9 °F 72% 30.08 in 10.0 mi SE 9.2 mph - N/A   Mostly Cloudy
5:53 PM 86.0 °F 93.8 °F 73.9 °F 67% 30.07 in 10.0 mi SE 6.9 mph - N/A   Mostly Cloudy
6:53 PM 84.0 °F 91.2 °F 73.9 °F 72% 30.09 in 10.0 mi West 6.9 mph - N/A   Mostly Cloudy
7:53 PM 82.9 °F 88.8 °F 73.0 °F 72% 30.12 in 10.0 mi WNW 3.5 mph - N/A   Mostly Cloudy
8:53 PM 82.0 °F 87.9 °F 73.9 °F 76% 30.11 in 10.0 mi Calm Calm - N/A   Mostly Cloudy
9:53 PM 82.0 °F 87.9 °F 73.9 °F 76% 30.12 in 10.0 mi NNW 3.5 mph - N/A   Unknown
10:53 PM 82.0 °F 88.6 °F 75.0 °F 79% 30.13 in 10.0 mi Calm Calm - N/A   Unknown
11:53 PM 82.9 °F 89.4 °F 73.9 °F 74% 30.12 in 10.0 mi East 9.2 mph - N/A   Unknown